Погода в Дубках

Россия / Орловская область     52°26′43″N   37°32′31″E
темп.,
°C
ветер,
м/с
пор.,
м/с
влажн.,
%
обл.,
%
осадки,
мм/ч
давл.,
гПа
погр.,
м
8 марта, пн
пн800:00−4з51283100 0.9 1003328
03:00−6зюз51186100 0.9 1003239
06:00−6зюз5128297 0.0 1003270
09:00−5з6129198 0.0 1003664
12:00−4з7118425 0.0 10051028
15:00−3зсз698460 0.1 1006996
18:00−7з348967 0.0 100863
21:00−10зсз239333 0.1 101021
9 марта, вт
вт900:00−10ссз1293100 0.1 101121
03:00−11ссз2389100 0.1 101227
06:00−12ссз3394100 0.0 101270
09:00−10с469495 0.1 1015269
12:00−10ссз478990 0.0 1016460
15:00−10ссз478795 0.0 1018636
18:00−13сз3493100 0.0 101960
21:00−15сз349375 0.0 102141
10 марта, ср
ср1000:00−17сз34920 0.0 102343
03:00−18сз33960 0.0 102430
06:00−19сз33970 0.0 102623
09:00−17ссз23944 0.0 1027104
12:00−13ссз128653 0.0 1027269
15:00−11з118674 0.0 1026370
18:00−12в2396100 0.3 102689
21:00−15всв4795100 0.6 1028227
11 марта, чт
чт1100:00−17в3795100 0.2 1029211
03:00−21в349294 0.3 103089
06:00−23в349316 0.0 103147
09:00−21в36929 0.0 1032164
12:00−17вюв35880 0.0 1032264
15:00−14вюв35860 0.0 1031343
18:00−16вюв34880 0.0 103138
21:00−18юв44840 0.0 103168
12 марта, пт
пт1200:00−18юв478635 0.0 1031126
03:00−18юв499049 0.0 1029161
06:00−16юв5118948 0.0 1027242
09:00−12ююв7138274 0.0 1026407
12:00−7ююв91579100 0.0 1023707
15:00−5ююв101773100 0.0 10201099
18:00−6ю101791100 0.8 10171068
21:00−6ю101794100 2.4 10151038